| time (UTC) | temp F | wind direction | speed MPH | gust MPH | rain 1hr in | rain 24hr in | rain mn in | humidity % | barometer mb |
| 20260505165505 | 71 | 215 | 2.0 | 13.0 | 0.00 | 0.00 | 0.00 | 59 | 1008.8 |
| 20260505165006 | 71 | 232 | 4.0 | 18.0 | 0.00 | 0.00 | 0.00 | 57 | 1008.8 |
| 20260505164511 | 71 | 241 | 6.0 | 18.0 | 0.00 | 0.00 | 0.00 | 57 | 1008.9 |
| 20260505164003 | 71 | 209 | 7.0 | 17.0 | 0.00 | 0.00 | 0.00 | 56 | 1008.7 |
| 20260505163509 | 71 | 248 | 6.0 | 12.0 | 0.00 | 0.00 | 0.00 | 58 | 1008.7 |
| 20260505163018 | 71 | 250 | 4.0 | 13.0 | 0.00 | 0.00 | 0.00 | 60 | 1008.7 |
| 20260505162506 | 71 | 210 | 6.0 | 13.0 | 0.00 | 0.00 | 0.00 | 58 | 1008.8 |
| 20260505162010 | 70 | 221 | 3.0 | 12.0 | 0.00 | 0.00 | 0.00 | 58 | 1008.9 |
| 20260505161521 | 70 | 144 | 3.0 | 15.0 | 0.00 | 0.00 | 0.00 | 59 | 1009.1 |
| 20260505161008 | 70 | 207 | 8.0 | 16.0 | 0.00 | 0.00 | 0.00 | 57 | 1009.0 |
| 20260505160512 | 71 | 202 | 4.0 | 19.0 | 0.00 | 0.00 | 0.00 | 58 | 1009.1 |
| 20260505153015 | 69 | 227 | 3.0 | 17.0 | 0.00 | 0.00 | 0.00 | 62 | 1009.0 |
| 20260505152507 | 68 | 212 | 5.0 | 17.0 | 0.00 | 0.00 | 0.00 | 62 | 1008.9 |
| 20260505152011 | 68 | 186 | 2.0 | 15.0 | 0.00 | 0.00 | 0.00 | 65 | 1008.9 |
| 20260505151517 | 68 | 193 | 6.0 | 15.0 | 0.00 | 0.00 | 0.00 | 65 | 1008.8 |
| 20260505151007 | 67 | 207 | 4.0 | 14.0 | 0.00 | 0.00 | 0.00 | 65 | 1008.8 |
| 20260505150506 | 67 | 38 | 3.0 | 14.0 | 0.00 | 0.00 | 0.00 | 67 | 1008.7 |
| 20260505140512 | 63 | 196 | 5.0 | 11.0 | 0.00 | 0.00 | 0.00 | 76 | 1008.2 |
| 20260505125013 | 60 | 202 | 2.0 | 10.0 | 0.00 | 0.00 | 0.00 | 80 | 1008.4 |
| 20260505124529 | 60 | 170 | 3.0 | 13.0 | 0.00 | 0.00 | 0.00 | 79 | 1008.3 |
| 20260505124002 | 60 | 279 | 6.0 | 13.0 | 0.00 | 0.00 | 0.00 | 79 | 1008.3 |
| 20260505123502 | 59 | 194 | 2.0 | 9.0 | 0.00 | 0.00 | 0.00 | 80 | 1008.2 |
| 20260505123007 | 59 | 186 | 3.0 | 9.0 | 0.00 | 0.00 | 0.00 | 80 | 1008.2 |
| 20260505122508 | 59 | 248 | 2.0 | 12.0 | 0.00 | 0.00 | 0.00 | 79 | 1008.2 |
| 20260505122003 | 59 | 192 | 5.0 | 12.0 | 0.00 | 0.00 | 0.00 | 80 | 1008.1 |
| 20260505121514 | 59 | 184 | 2.0 | 9.0 | 0.00 | 0.00 | 0.00 | 80 | 1007.9 |
| 20260505121003 | 59 | 201 | 1.0 | 8.0 | 0.00 | 0.00 | 0.00 | 79 | 1007.7 |
| 20260505120508 | 59 | 252 | 1.0 | 8.0 | 0.00 | 0.00 | 0.00 | 79 | 1007.6 |
| 20260505120029 | 59 | 211 | 3.0 | 9.0 | 0.00 | 0.00 | 0.00 | 79 | 1007.0 |
| 20260505115506 | 59 | 155 | 2.0 | 10.0 | 0.00 | 0.00 | 0.00 | 79 | 1007.2 |
| 20260505115010 | 59 | 206 | 3.0 | 10.0 | 0.00 | 0.00 | 0.00 | 78 | 1007.3 |
| 20260505114522 | 59 | 175 | 1.0 | 6.0 | 0.00 | 0.00 | 0.00 | 79 | 1007.4 |
| 20260505114009 | 59 | 199 | 1.0 | 11.0 | 0.00 | 0.00 | 0.00 | 78 | 1007.4 |
| 20260505113510 | 59 | 172 | 1.0 | 11.0 | 0.00 | 0.00 | 0.00 | 78 | 1007.3 |
| 20260505113025 | 59 | 183 | 2.0 | 6.0 | 0.00 | 0.00 | 0.00 | 78 | 1007.6 |
| 20260505112509 | 60 | 204 | 0.0 | 7.0 | 0.00 | 0.00 | 0.00 | 77 | 1007.6 |
| 20260505112004 | 60 | 234 | 2.0 | 8.0 | 0.00 | 0.00 | 0.00 | 76 | 1007.6 |
| 20260505111515 | 60 | 240 | 3.0 | 8.0 | 0.00 | 0.00 | 0.00 | 76 | 1007.7 |
| 20260505111004 | 60 | 197 | 3.0 | 7.0 | 0.00 | 0.00 | 0.00 | 76 | 1007.7 |
| 20260505110503 | 60 | 253 | 1.0 | 8.0 | 0.00 | 0.00 | 0.00 | 75 | 1007.7 |
| 20260505102011 | 61 | 202 | 1.0 | 5.0 | 0.00 | 0.00 | 0.00 | 70 | 1007.7 |
| 20260505101540 | 61 | 179 | 2.0 | 5.0 | 0.00 | 0.00 | 0.00 | 70 | 1007.6 |
| 20260505101014 | 61 | 225 | 1.0 | 4.0 | 0.00 | 0.00 | 0.00 | 70 | 1007.7 |
| 20260505100506 | 61 | 207 | 0.0 | 3.0 | 0.00 | 0.00 | 0.00 | 70 | 1007.7 |
| 20260505100012 | 61 | 205 | 0.0 | 9.0 | 0.00 | 0.00 | 0.00 | 70 | 1007.7 |
| 20260505095506 | 62 | 218 | 3.0 | 9.0 | 0.00 | 0.00 | 0.00 | 70 | 1007.7 |
| 20260505095010 | 62 | 232 | 0.0 | 3.0 | 0.00 | 0.00 | 0.00 | 69 | 1007.7 |
| 20260505094526 | 62 | 215 | 0.0 | 3.0 | 0.00 | 0.00 | 0.00 | 69 | 1007.6 |
| 20260505094005 | 62 | 262 | 0.0 | 6.0 | 0.00 | 0.00 | 0.00 | 69 | 1007.7 |
| 20260505093508 | 62 | 208 | 1.0 | 6.0 | 0.00 | 0.00 | 0.00 | 68 | 1007.7 |
| 20260505093019 | 62 | 193 | 1.0 | 6.0 | 0.00 | 0.00 | 0.00 | 67 | 1007.6 |
| 20260505092510 | 62 | 223 | 0.0 | 8.0 | 0.00 | 0.00 | 0.00 | 67 | 1007.4 |
| 20260505092012 | 62 | 187 | 0.0 | 8.0 | 0.00 | 0.00 | 0.00 | 66 | 1007.3 |
| 20260505091526 | 63 | 251 | 2.0 | 7.0 | 0.00 | 0.00 | 0.00 | 66 | 1007.3 |
| 20260505091009 | 63 | 208 | 1.0 | 9.0 | 0.00 | 0.00 | 0.00 | 66 | 1007.3 |
| 20260505090510 | 63 | 190 | 1.0 | 10.0 | 0.00 | 0.00 | 0.00 | 65 | 1007.3 |
| 20260505090028 | 63 | 180 | 1.0 | 13.0 | 0.00 | 0.00 | 0.00 | 65 | 1007.3 |
| 20260505085509 | 63 | 232 | 4.0 | 13.0 | 0.00 | 0.00 | 0.00 | 65 | 1007.2 |
| 20260505085007 | 63 | 190 | 2.0 | 12.0 | 0.00 | 0.00 | 0.00 | 64 | 1007.2 |
| 20260505084514 | 64 | 215 | 5.0 | 15.0 | 0.00 | 0.00 | 0.00 | 63 | 1007.1 |
| 20260505084010 | 64 | 300 | 4.0 | 15.0 | 0.00 | 0.00 | 0.00 | 63 | 1007.1 |
| 20260505083507 | 64 | 242 | 4.0 | 15.0 | 0.00 | 0.00 | 0.00 | 63 | 1007.0 |
| 20260505083023 | 64 | 162 | 2.0 | 11.0 | 0.00 | 0.00 | 0.00 | 62 | 1006.8 |
| 20260505082511 | 64 | 201 | 3.0 | 12.0 | 0.00 | 0.00 | 0.00 | 62 | 1006.8 |
| 20260505082010 | 64 | 186 | 5.0 | 14.0 | 0.00 | 0.00 | 0.00 | 62 | 1006.5 |
| 20260505081526 | 64 | 265 | 4.0 | 15.0 | 0.00 | 0.00 | 0.00 | 62 | 1006.4 |
| 20260505081016 | 64 | 277 | 2.0 | 15.0 | 0.00 | 0.00 | 0.00 | 62 | 1006.3 |
| 20260505080510 | 64 | 191 | 5.0 | 17.0 | 0.00 | 0.00 | 0.00 | 62 | 1006.1 |
| 20260505080026 | 64 | 182 | 7.0 | 16.0 | 0.00 | 0.00 | 0.00 | 62 | 1006.1 |
| 20260505075511 | 64 | 228 | 4.0 | 17.0 | 0.00 | 0.00 | 0.00 | 63 | 1006.0 |
| 20260505075019 | 64 | 205 | 6.0 | 17.0 | 0.00 | 0.00 | 0.00 | 63 | 1005.9 |
| 20260505074529 | 64 | 250 | 4.0 | 16.0 | 0.00 | 0.00 | 0.00 | 63 | 1005.9 |
| 20260505074010 | 64 | 189 | 5.0 | 15.0 | 0.00 | 0.00 | 0.00 | 64 | 1006.1 |
| 20260505073515 | 64 | 174 | 4.0 | 15.0 | 0.00 | 0.00 | 0.00 | 64 | 1006.0 |
| 20260505073017 | 64 | 218 | 4.0 | 15.0 | 0.00 | 0.00 | 0.00 | 64 | 1006.0 |
| 20260505072506 | 63 | 223 | 4.0 | 12.0 | 0.00 | 0.00 | 0.00 | 65 | 1006.0 |
| 20260505072007 | 63 | 215 | 4.0 | 12.0 | 0.00 | 0.00 | 0.00 | 66 | 1006.1 |
| 20260505071530 | 63 | 205 | 3.0 | 13.0 | 0.00 | 0.00 | 0.00 | 66 | 1006.0 |
| 20260505071006 | 63 | 201 | 3.0 | 13.0 | 0.00 | 0.00 | 0.00 | 66 | 1006.0 |
| 20260505070511 | 63 | 185 | 3.0 | 11.0 | 0.00 | 0.00 | 0.00 | 66 | 1006.0 |
| 20260505070027 | 63 | 159 | 2.0 | 10.0 | 0.00 | 0.00 | 0.00 | 66 | 1006.0 |
| 20260505065509 | 64 | 207 | 4.0 | 10.0 | 0.00 | 0.00 | 0.00 | 65 | 1005.9 |
| 20260505065011 | 63 | 175 | 4.0 | 10.0 | 0.00 | 0.00 | 0.00 | 65 | 1005.9 |
| 20260505064528 | 63 | 194 | 2.0 | 8.0 | 0.00 | 0.00 | 0.00 | 66 | 1005.9 |
| 20260505064011 | 63 | 190 | 4.0 | 9.0 | 0.00 | 0.00 | 0.00 | 65 | 1005.9 |
| 20260505063509 | 63 | 240 | 4.0 | 10.0 | 0.00 | 0.00 | 0.00 | 66 | 1005.8 |
| 20260505063027 | 64 | 217 | 4.0 | 10.0 | 0.00 | 0.00 | 0.00 | 65 | 1005.9 |
| 20260505062511 | 64 | 178 | 3.0 | 10.0 | 0.00 | 0.00 | 0.00 | 65 | 1005.9 |
| 20260505062012 | 64 | 142 | 4.0 | 13.0 | 0.00 | 0.00 | 0.00 | 65 | 1005.7 |
| 20260505061520 | 64 | 158 | 2.0 | 13.0 | 0.00 | 0.00 | 0.00 | 65 | 1005.8 |
| 20260505061008 | 64 | 171 | 3.0 | 10.0 | 0.00 | 0.00 | 0.00 | 65 | 1005.8 |
| 20260505060510 | 64 | 183 | 3.0 | 9.0 | 0.00 | 0.00 | 0.00 | 65 | 1005.9 |
| 20260505060040 | 64 | 187 | 4.0 | 10.0 | 0.00 | 0.00 | 0.00 | 64 | 1005.8 |
| 20260505055513 | 64 | 229 | 3.0 | 10.0 | 0.00 | 0.00 | 0.00 | 64 | 1005.8 |
| 20260505055013 | 64 | 157 | 4.0 | 11.0 | 0.00 | 0.00 | 0.00 | 64 | 1005.9 |
| 20260505054527 | 64 | 297 | 5.0 | 12.0 | 0.00 | 0.00 | 0.00 | 64 | 1005.8 |
| 20260505054013 | 64 | 174 | 5.0 | 12.0 | 0.00 | 0.00 | 0.00 | 65 | 1005.9 |
| 20260505053509 | 64 | 183 | 3.0 | 9.0 | 0.00 | 0.00 | 0.00 | 65 | 1006.0 |
| 20260505053030 | 65 | 171 | 3.0 | 12.0 | 0.00 | 0.00 | 0.00 | 64 | 1006.1 |
| 20260505052509 | 65 | 175 | 4.0 | 12.0 | 0.00 | 0.00 | 0.00 | 64 | 1006.1 |
| 20260505052015 | 65 | 174 | 3.0 | 11.0 | 0.00 | 0.00 | 0.00 | 64 | 1006.2 |
| 20260505051529 | 65 | 191 | 3.0 | 11.0 | 0.00 | 0.00 | 0.00 | 64 | 1006.2 |
| 20260505051010 | 65 | 194 | 4.0 | 10.0 | 0.00 | 0.00 | 0.00 | 64 | 1006.4 |
| 20260505050512 | 65 | 193 | 3.0 | 11.0 | 0.00 | 0.00 | 0.00 | 63 | 1006.4 |
| 20260505041530 | 66 | 253 | 3.0 | 13.0 | 0.00 | 0.00 | 0.00 | 62 | 1006.3 |
| 20260505041010 | 66 | 212 | 4.0 | 13.0 | 0.00 | 0.00 | 0.00 | 62 | 1006.4 |
| 20260505040506 | 67 | 211 | 3.0 | 13.0 | 0.00 | 0.00 | 0.00 | 61 | 1006.5 |
| 20260505040022 | 67 | 179 | 3.0 | 17.0 | 0.00 | 0.00 | 0.00 | 61 | 1006.4 |
| 20260505035510 | 66 | 176 | 6.0 | 16.0 | 0.00 | 0.00 | 0.00 | 61 | 1006.4 |
| 20260505035010 | 66 | 320 | 4.0 | 10.0 | 0.00 | 0.00 | 0.00 | 62 | 1006.4 |
| 20260505034525 | 66 | 128 | 2.0 | 9.0 | 0.00 | 0.00 | 0.00 | 63 | 1006.3 |
| 20260505034007 | 66 | 360 | 2.0 | 11.0 | 0.00 | 0.00 | 0.00 | 63 | 1006.4 |
| 20260505033512 | 66 | 190 | 4.0 | 11.0 | 0.00 | 0.00 | 0.00 | 63 | 1006.4 |
| 20260505033028 | 66 | 209 | 2.0 | 9.0 | 0.00 | 0.00 | 0.00 | 63 | 1006.4 |
| 20260505032503 | 66 | 198 | 2.0 | 9.0 | 0.00 | 0.00 | 0.00 | 63 | 1006.3 |
| 20260505032003 | 66 | 151 | 3.0 | 9.0 | 0.00 | 0.00 | 0.00 | 63 | 1006.3 |
| 20260505031511 | 65 | 155 | 3.0 | 9.0 | 0.00 | 0.00 | 0.00 | 64 | 1006.2 |
| 20260505031004 | 65 | 171 | 2.0 | 9.0 | 0.00 | 0.00 | 0.00 | 65 | 1006.3 |
| 20260505030506 | 65 | 188 | 3.0 | 9.0 | 0.00 | 0.00 | 0.00 | 65 | 1006.2 |
| 20260505030016 | 65 | 154 | 3.0 | 8.0 | 0.00 | 0.00 | 0.00 | 65 | 1006.2 |
| 20260505025512 | 65 | 180 | 2.0 | 8.0 | 0.00 | 0.00 | 0.00 | 65 | 1006.2 |
| 20260505025007 | 65 | 215 | 2.0 | 8.0 | 0.00 | 0.00 | 0.00 | 65 | 1006.2 |
| 20260505024523 | 65 | 186 | 2.0 | 7.0 | 0.00 | 0.00 | 0.00 | 66 | 1006.1 |
| 20260505024007 | 65 | 167 | 2.0 | 7.0 | 0.00 | 0.00 | 0.00 | 65 | 1006.1 |
| 20260505023506 | 66 | 191 | 2.0 | 7.0 | 0.00 | 0.00 | 0.00 | 65 | 1006.1 |
| 20260505023025 | 66 | 166 | 2.0 | 6.0 | 0.00 | 0.00 | 0.00 | 65 | 1006.2 |
| 20260505022509 | 66 | 161 | 2.0 | 7.0 | 0.00 | 0.00 | 0.00 | 64 | 1006.2 |
| 20260505022013 | 66 | 173 | 2.0 | 7.0 | 0.00 | 0.00 | 0.00 | 64 | 1006.2 |
| 20260505021531 | 66 | 199 | 2.0 | 6.0 | 0.00 | 0.00 | 0.00 | 64 | 1006.2 |
| 20260505021007 | 67 | 171 | 1.0 | 7.0 | 0.00 | 0.00 | 0.00 | 64 | 1006.1 |
| 20260505020503 | 67 | 202 | 3.0 | 11.0 | 0.00 | 0.00 | 0.00 | 63 | 1006.1 |
| 20260505020012 | 67 | 136 | 3.0 | 11.0 | 0.00 | 0.00 | 0.00 | 63 | 1006.1 |
| 20260505015508 | 67 | 161 | 3.0 | 8.0 | 0.00 | 0.00 | 0.00 | 63 | 1006.1 |
| 20260505015010 | 66 | 161 | 3.0 | 9.0 | 0.00 | 0.00 | 0.00 | 63 | 1006.0 |
| 20260505014520 | 66 | 181 | 4.0 | 9.0 | 0.00 | 0.00 | 0.00 | 63 | 1006.0 |
| 20260505014010 | 66 | 181 | 2.0 | 6.0 | 0.00 | 0.00 | 0.00 | 63 | 1005.9 |
| 20260505013505 | 66 | 185 | 2.0 | 6.0 | 0.00 | 0.00 | 0.00 | 63 | 1005.8 |
| 20260505013021 | 66 | 189 | 2.0 | 6.0 | 0.00 | 0.00 | 0.00 | 62 | 1005.7 |
| 20260505012507 | 67 | 200 | 3.0 | 7.0 | 0.00 | 0.00 | 0.00 | 62 | 1005.7 |
| 20260505012011 | 67 | 177 | 3.0 | 7.0 | 0.00 | 0.00 | 0.00 | 62 | 1005.6 |
| 20260505011528 | 67 | 174 | 2.0 | 5.0 | 0.00 | 0.00 | 0.00 | 62 | 1005.7 |
| 20260505011008 | 67 | 187 | 2.0 | 6.0 | 0.00 | 0.00 | 0.00 | 61 | 1005.6 |
| 20260505010505 | 67 | 170 | 1.0 | 6.0 | 0.00 | 0.00 | 0.00 | 61 | 1005.6 |
| 20260505010002 | 67 | 190 | 2.0 | 5.0 | 0.00 | 0.00 | 0.00 | 61 | 1005.5 |
| 20260505005504 | 67 | 215 | 2.0 | 6.0 | 0.00 | 0.00 | 0.00 | 60 | 1005.4 |
| 20260505005004 | 68 | 161 | 2.0 | 6.0 | 0.00 | 0.00 | 0.00 | 60 | 1005.5 |
| 20260505004503 | 68 | 189 | 1.0 | 8.0 | 0.00 | 0.00 | 0.00 | 60 | 1005.6 |
| 20260505004003 | 68 | 161 | 3.0 | 8.0 | 0.00 | 0.00 | 0.00 | 59 | 1005.6 |
| 20260505003506 | 68 | 199 | 2.0 | 8.0 | 0.00 | 0.00 | 0.00 | 59 | 1005.6 |
| 20260505003004 | 68 | 223 | 3.0 | 7.0 | 0.00 | 0.00 | 0.00 | 59 | 1005.7 |
| 20260505002505 | 68 | 173 | 1.0 | 6.0 | 0.00 | 0.00 | 0.00 | 58 | 1005.6 |
| 20260505002004 | 69 | 153 | 2.0 | 6.0 | 0.00 | 0.00 | 0.00 | 57 | 1005.5 |
| 20260505001506 | 69 | 168 | 1.0 | 8.0 | 0.00 | 0.00 | 0.00 | 57 | 1005.5 |
| 20260505001004 | 69 | 235 | 1.0 | 9.0 | 0.00 | 0.00 | 0.00 | 56 | 1005.4 |
| 20260505000504 | 70 | 189 | 2.0 | 9.0 | 0.00 | 0.00 | 0.00 | 55 | 1005.4 |
| 20260505000019 | 70 | 212 | 3.0 | 8.0 | 0.00 | 0.00 | 0.00 | 54 | 1005.5 |
| 20260504235504 | 70 | 180 | 2.0 | 7.0 | 0.00 | 0.00 | 0.00 | 54 | 1005.6 |
| 20260504235004 | 70 | 238 | 1.0 | 8.0 | 0.00 | 0.00 | 0.00 | 54 | 1005.7 |
| 20260504234502 | 71 | 257 | 3.0 | 8.0 | 0.00 | 0.00 | 0.00 | 54 | 1005.7 |
| 20260504234003 | 71 | 220 | 3.0 | 12.0 | 0.00 | 0.00 | 0.00 | 52 | 1005.8 |
| 20260504233503 | 71 | 180 | 4.0 | 12.0 | 0.00 | 0.00 | 0.00 | 51 | 1005.8 |
| 20260504233005 | 71 | 159 | 6.0 | 12.0 | 0.00 | 0.00 | 0.00 | 51 | 1005.7 |
| 20260504232503 | 71 | 195 | 5.0 | 12.0 | 0.00 | 0.00 | 0.00 | 52 | 1005.7 |
| 20260504232004 | 71 | 170 | 5.0 | 16.0 | 0.00 | 0.00 | 0.00 | 52 | 1005.8 |
| 20260504231504 | 71 | 232 | 5.0 | 16.0 | 0.00 | 0.00 | 0.00 | 54 | 1005.9 |
| 20260504231003 | 71 | 202 | 1.0 | 11.0 | 0.00 | 0.00 | 0.00 | 56 | 1006.0 |
| 20260504230504 | 71 | 275 | 3.0 | 13.0 | 0.00 | 0.00 | 0.00 | 54 | 1006.0 |
| 20260504230006 | 70 | 165 | 4.0 | 13.0 | 0.00 | 0.00 | 0.00 | 54 | 1005.9 |
| 20260504225506 | 70 | 169 | 5.0 | 12.0 | 0.00 | 0.00 | 0.00 | 54 | 1006.2 |
| 20260504225009 | 70 | 190 | 2.0 | 12.0 | 0.00 | 0.00 | 0.00 | 55 | 1006.2 |
| 20260504224513 | 70 | 192 | 3.0 | 12.0 | 0.00 | 0.00 | 0.00 | 54 | 1006.4 |
| 20260504224003 | 70 | 149 | 2.0 | 12.0 | 0.00 | 0.00 | 0.00 | 55 | 1006.5 |
| 20260504223507 | 70 | 197 | 4.0 | 18.0 | 0.00 | 0.00 | 0.00 | 54 | 1006.6 |
| 20260504223007 | 70 | 199 | 6.0 | 18.0 | 0.00 | 0.00 | 0.00 | 54 | 1006.6 |
| 20260504222503 | 70 | 221 | 5.0 | 14.0 | 0.00 | 0.00 | 0.00 | 54 | 1006.7 |
| 20260504222002 | 70 | 199 | 4.0 | 14.0 | 0.00 | 0.00 | 0.00 | 54 | 1006.7 |
| 20260504221503 | 69 | 133 | 5.0 | 16.0 | 0.00 | 0.00 | 0.00 | 56 | 1006.7 |
| 20260504221003 | 69 | 173 | 4.0 | 16.0 | 0.00 | 0.00 | 0.00 | 56 | 1006.8 |
| 20260504220505 | 68 | 263 | 4.0 | 14.0 | 0.00 | 0.00 | 0.00 | 57 | 1006.8 |
| 20260504220006 | 68 | 177 | 3.0 | 14.0 | 0.00 | 0.00 | 0.00 | 58 | 1006.6 |
| 20260504215505 | 68 | 209 | 5.0 | 17.0 | 0.00 | 0.00 | 0.00 | 57 | 1006.7 |
| 20260504215003 | 68 | 24 | 4.0 | 17.0 | 0.00 | 0.00 | 0.00 | 57 | 1006.6 |
| 20260504214518 | 69 | 194 | 4.0 | 16.0 | 0.00 | 0.00 | 0.00 | 57 | 1006.8 |
| 20260504214010 | 69 | 138 | 5.0 | 16.0 | 0.00 | 0.00 | 0.00 | 56 | 1006.8 |
| 20260504213506 | 70 | 191 | 7.0 | 14.0 | 0.00 | 0.00 | 0.00 | 54 | 1006.8 |
| 20260504213016 | 70 | 96 | 6.0 | 22.0 | 0.00 | 0.00 | 0.00 | 53 | 1007.0 |
| 20260504212509 | 71 | 209 | 6.0 | 22.0 | 0.00 | 0.00 | 0.00 | 52 | 1007.0 |
| 20260504212010 | 71 | 221 | 6.0 | 19.0 | 0.00 | 0.00 | 0.00 | 51 | 1007.0 |
| 20260504211504 | 71 | 215 | 5.0 | 25.0 | 0.00 | 0.00 | 0.00 | 52 | 1006.9 |
| 20260504211003 | 71 | 205 | 7.0 | 25.0 | 0.00 | 0.00 | 0.00 | 52 | 1006.8 |
| 20260504210503 | 71 | 275 | 4.0 | 15.0 | 0.00 | 0.00 | 0.00 | 52 | 1006.7 |
| 20260504210003 | 70 | 333 | 5.0 | 13.0 | 0.00 | 0.00 | 0.00 | 54 | 1006.6 |
| 20260504205506 | 69 | 211 | 3.0 | 15.0 | 0.00 | 0.00 | 0.00 | 56 | 1006.7 |
| 20260504205005 | 69 | 242 | 6.0 | 15.0 | 0.00 | 0.00 | 0.00 | 53 | 1006.6 |
| 20260504204514 | 69 | 231 | 2.0 | 13.0 | 0.00 | 0.00 | 0.00 | 56 | 1006.8 |
| 20260504204003 | 69 | 239 | 4.0 | 15.0 | 0.00 | 0.00 | 0.00 | 56 | 1006.8 |
| 20260504203508 | 69 | 175 | 6.0 | 16.0 | 0.00 | 0.00 | 0.00 | 55 | 1007.0 |
| 20260504203012 | 69 | 188 | 6.0 | 15.0 | 0.00 | 0.00 | 0.00 | 57 | 1007.1 |
| 20260504202505 | 69 | 184 | 4.0 | 24.0 | 0.00 | 0.00 | 0.00 | 57 | 1007.2 |
| 20260504202008 | 70 | 315 | 9.0 | 23.0 | 0.00 | 0.00 | 0.00 | 55 | 1007.3 |
| 20260504201520 | 70 | 161 | 7.0 | 17.0 | 0.00 | 0.00 | 0.00 | 55 | 1007.5 |
| 20260504201008 | 70 | 308 | 7.0 | 22.0 | 0.00 | 0.00 | 0.00 | 55 | 1007.6 |
| 20260504200506 | 70 | 163 | 7.0 | 22.0 | 0.00 | 0.00 | 0.00 | 55 | 1007.7 |
| 20260504200020 | 70 | 160 | 9.0 | 26.0 | 0.00 | 0.00 | 0.00 | 54 | 1007.9 |
| 20260504195502 | 71 | 229 | 8.0 | 26.0 | 0.00 | 0.00 | 0.00 | 54 | 1007.9 |
| 20260504195003 | 72 | 168 | 9.0 | 23.0 | 0.00 | 0.00 | 0.00 | 51 | 1008.1 |
| 20260504194503 | 73 | 252 | 7.0 | 19.0 | 0.00 | 0.00 | 0.00 | 50 | 1007.7 |
| 20260504194003 | 73 | 352 | 4.0 | 19.0 | 0.00 | 0.00 | 0.00 | 50 | 1007.5 |
| 20260504193503 | 73 | 235 | 7.0 | 19.0 | 0.00 | 0.00 | 0.00 | 51 | 1007.5 |
| 20260504193019 | 73 | 221 | 6.0 | 16.0 | 0.00 | 0.00 | 0.00 | 51 | 1007.6 |
| 20260504192506 | 73 | 178 | 7.0 | 15.0 | 0.00 | 0.00 | 0.00 | 50 | 1007.5 |
| 20260504192005 | 73 | 194 | 4.0 | 20.0 | 0.00 | 0.00 | 0.00 | 49 | 1007.7 |
| 20260504191520 | 73 | 221 | 6.0 | 20.0 | 0.00 | 0.00 | 0.00 | 52 | 1007.5 |
| 20260504191005 | 73 | 194 | 7.0 | 18.0 | 0.00 | 0.00 | 0.00 | 51 | 1007.4 |
| 20260504190507 | 73 | 256 | 6.0 | 18.0 | 0.00 | 0.00 | 0.00 | 52 | 1007.3 |
| 20260504190020 | 73 | 275 | 3.0 | 16.0 | 0.00 | 0.00 | 0.00 | 49 | 1007.4 |
| 20260504185512 | 72 | 102 | 7.0 | 14.0 | 0.00 | 0.00 | 0.00 | 52 | 1007.4 |
| 20260504185015 | 72 | 312 | 6.0 | 13.0 | 0.00 | 0.00 | 0.00 | 52 | 1007.4 |
| 20260504184522 | 72 | 323 | 3.0 | 18.0 | 0.00 | 0.00 | 0.00 | 52 | 1007.3 |
| 20260504184004 | 72 | 252 | 4.0 | 18.0 | 0.00 | 0.00 | 0.00 | 52 | 1007.3 |
| 20260504183504 | 72 | 183 | 8.0 | 17.0 | 0.00 | 0.00 | 0.00 | 52 | 1007.4 |
| 20260504183008 | 72 | 197 | 4.0 | 16.0 | 0.00 | 0.00 | 0.00 | 54 | 1007.4 |
| 20260504182503 | 71 | 227 | 4.0 | 16.0 | 0.00 | 0.00 | 0.00 | 55 | 1007.6 |
| 20260504182004 | 71 | 225 | 4.0 | 15.0 | 0.00 | 0.00 | 0.00 | 54 | 1007.7 |
| 20260504181518 | 70 | 187 | 6.0 | 15.0 | 0.00 | 0.00 | 0.00 | 53 | 1007.6 |
| 20260504181005 | 70 | 163 | 3.0 | 14.0 | 0.00 | 0.00 | 0.00 | 55 | 1007.8 |
| 20260504180511 | 71 | 165 | 3.0 | 10.0 | 0.00 | 0.00 | 0.00 | 56 | 1007.8 |
| 20260504180015 | 71 | 200 | 4.0 | 10.0 | 0.00 | 0.00 | 0.00 | 52 | 1007.6 |
| 20260504175506 | 71 | 179 | 4.0 | 15.0 | 0.00 | 0.00 | 0.00 | 56 | 1007.8 |
| 20260504175006 | 71 | 205 | 4.0 | 15.0 | 0.00 | 0.00 | 0.00 | 53 | 1007.8 |
| 20260504174520 | 71 | 319 | 3.0 | 14.0 | 0.00 | 0.00 | 0.00 | 55 | 1007.9 |
| 20260504174007 | 71 | 240 | 5.0 | 14.0 | 0.00 | 0.00 | 0.00 | 54 | 1007.8 |
| 20260504173510 | 71 | 186 | 3.0 | 15.0 | 0.00 | 0.00 | 0.00 | 56 | 1007.9 |
| 20260504173023 | 70 | 261 | 4.0 | 15.0 | 0.00 | 0.00 | 0.00 | 54 | 1007.8 |
| 20260504172504 | 70 | 279 | 8.0 | 15.0 | 0.00 | 0.00 | 0.00 | 54 | 1007.8 |
| 20260504172005 | 70 | 172 | 5.0 | 13.0 | 0.00 | 0.00 | 0.00 | 52 | 1007.9 |
| 20260504171511 | 70 | 202 | 3.0 | 12.0 | 0.00 | 0.00 | 0.00 | 59 | 1007.8 |
| 20260504171003 | 70 | 138 | 5.0 | 17.0 | 0.00 | 0.00 | 0.00 | 54 | 1008.0 |
| 20260504170505 | 69 | 236 | 5.0 | 17.0 | 0.00 | 0.00 | 0.00 | 55 | 1008.1 |